Weather History for OTBD - January, 2012

Change the Weather History Date:

Sunday, January 8, 2012

  Actual Average Record
Temperature  
Mean Temperature 70 °F -  
Max Temperature 78 °F 72 °F 85 °F (2015)
Min Temperature 62 °F 56 °F 48 °F (2008)
Cooling Degree Days 5    
Growing Degree Days 20 (Base 50)    
Moisture  
Dew Point 61 °F    
Average Humidity 79    
Maximum Humidity 100    
Minimum Humidity 36    
Precipitation  
Precipitation 0.00 in 0.02 in - ()
Sea Level Pressure  
Sea Level Pressure 30.07 in    
Wind  
Wind Speed 5 mph ()    
Max Wind Speed 12 mph    
Max Gust Speed -    
Visibility 3.0 miles    
Events Fog    
Averages and records for this station are not official NWS values.
T = Trace of Precipitation, MM = Missing Value Source: Averaged Metar Reports

Daily Weather History Graph

Daily Weather History Graph

Search for Another Location

Airport or City:

Trip Planner

Search our weather history database for the weather conditions in past years. The results will help you decide how hot, cold, wet, or windy it might be!

Date:

Astronomy

Jan. 08, 2012 Rise Set
Actual Time 6:20 AM AST 4:59 PM AST
Civil Twilight 5:55 AM AST 5:24 PM AST
Nautical Twilight 5:27 AM AST 5:52 PM AST
Astronomical Twilight 4:59 AM AST 6:20 PM AST
Moon 4:19 PM AST (1/8) 5:20 AM AST (1/8)
Length of Visible Light 11h 28m
Length of Day
10h 39m
Waxing Gibbous, 99% of the Moon is Illuminated
Jan 8
Waxing Gibbous
Jan 9
Full
Jan 16
Last Quarter
Jan 23
New
Jan 31
First Quarter

Hourly Weather History & Observations

Time (AST) Temp. Dew Point Humidity Pressure Visibility Wind Dir Wind Speed Gust Speed Precip Events Conditions
12:00 AM 64.4 °F 62.6 °F 94% 30.06 in 2.5 mi ESE 4.6 mph - N/A   Mist
12:30 AM 64.4 °F 62.6 °F 94% 30.06 in 2.5 mi Variable 2.3 mph - N/A   Partly Cloudy
1:00 AM 64.4 °F 62.6 °F 94% 30.06 in 2.2 mi Variable 2.3 mph - N/A   Partly Cloudy
1:30 AM 64.4 °F 62.6 °F 94% 30.06 in 2.2 mi Calm Calm - N/A   Partly Cloudy
2:00 AM 64.4 °F 62.6 °F 94% 30.06 in 2.2 mi Calm Calm - N/A   Partly Cloudy
3:00 AM 64 °F 63 °F 95% 30.07 in 1 mi 2.3 mph - -   Mist
3:00 AM 64.4 °F 62.6 °F 94% 30.06 in 0.9 mi Variable 2.3 mph - N/A   Partly Cloudy
3:30 AM 64.4 °F 64.4 °F 100% 30.06 in 0.5 mi Variable 1.2 mph - N/A Fog Fog
4:00 AM 62.6 °F 60.8 °F 94% 30.06 in 0.1 mi Variable 2.3 mph - N/A Fog Fog
5:00 AM 64.4 °F 62.6 °F 94% 30.06 in 0.8 mi SSE 3.5 mph - N/A   Partly Cloudy
5:30 AM 64.4 °F 62.6 °F 94% 30.06 in 2.2 mi SE 6.9 mph - N/A   Partly Cloudy
6:00 AM 64.4 °F 62.6 °F 94% 30.09 in 2.2 mi ESE 4.6 mph - N/A   Mist
6:30 AM 64.4 °F 62.6 °F 94% 30.09 in 1.2 mi SE 3.5 mph - N/A   Partly Cloudy
7:00 AM 64.4 °F 64.4 °F 100% 30.09 in 1.2 mi SE 3.5 mph - N/A   Mist
7:30 AM 66.2 °F 64.4 °F 94% 30.09 in 2.5 mi SE 4.6 mph - N/A   Haze
8:00 AM 66.2 °F 64.4 °F 94% 30.12 in 2.5 mi SSE 3.5 mph - N/A   Haze
8:30 AM 68.0 °F 64.4 °F 88% 30.12 in 3.7 mi SSE 5.8 mph - N/A   Unknown
9:00 AM 70 °F 63 °F 72% 30.14 in 4 mi SSE 8.1 mph - -   Haze
9:00 AM 69.8 °F 62.6 °F 78% 30.12 in 3.7 mi SSE 8.1 mph - N/A   Unknown
9:30 AM 71.6 °F 60.8 °F 69% 30.12 in 5.0 mi SSE 6.9 mph - N/A   Unknown
10:00 AM 73.4 °F 57.2 °F 57% 30.12 in - SSE 5.8 mph - N/A   Clear
10:30 AM 75.2 °F 53.6 °F 47% 30.09 in - SSE 9.2 mph - N/A   Clear
11:00 AM 77.0 °F 53.6 °F 44% 30.09 in - South 8.1 mph - N/A   Clear
11:30 AM 78.8 °F 51.8 °F 39% 30.09 in - South 6.9 mph - N/A   Clear
12:00 PM 78.8 °F 50.0 °F 36% 30.06 in - SSE 9.2 mph - N/A   Clear
12:30 PM 77.0 °F 53.6 °F 44% 30.06 in - SE 10.4 mph - N/A   Clear
1:00 PM 77.0 °F 51.8 °F 41% 30.04 in - SE 11.5 mph - N/A   Clear
1:30 PM 75.2 °F 53.6 °F 47% 30.06 in - SE 9.2 mph - N/A   Clear
2:00 PM 75.2 °F 53.6 °F 47% 30.04 in - SE 9.2 mph - N/A   Clear
2:30 PM 73.4 °F 59.0 °F 61% 30.04 in - East 10.4 mph - N/A   Clear
3:00 PM 73 °F 59 °F 53% 30.06 in 6 mi East 9.2 mph - -  
3:00 PM 73.4 °F 59.0 °F 61% 30.04 in - East 9.2 mph - N/A   Clear
3:30 PM 71.6 °F 60.8 °F 69% 30.06 in 5.6 mi East 6.9 mph - N/A   Unknown
4:00 PM 71.6 °F 62.6 °F 73% 30.06 in 5.0 mi ENE 8.1 mph - N/A   Unknown
4:30 PM 69.8 °F 62.6 °F 78% 30.06 in 5.0 mi East 8.1 mph - N/A   Unknown
5:00 PM 69.8 °F 62.6 °F 78% 30.06 in 4.3 mi ENE 8.1 mph - N/A   Unknown
5:30 PM 68.0 °F 62.6 °F 83% 30.06 in 3.7 mi ENE 6.9 mph - N/A   Unknown
6:00 PM 68.0 °F 64.4 °F 88% 30.06 in 3.7 mi ENE 8.1 mph - N/A   Unknown
6:30 PM 68.0 °F 64.4 °F 88% 30.06 in 3.7 mi East 6.9 mph - N/A   Unknown
7:00 PM 68.0 °F 64.4 °F 88% 30.06 in 3.1 mi East 8.1 mph - N/A   Mist
7:30 PM 68.0 °F 64.4 °F 88% 30.06 in 3.1 mi East 6.9 mph - N/A   Mist
8:00 PM 68.0 °F 64.4 °F 88% 30.06 in 3.1 mi East 5.8 mph - N/A   Mist
8:30 PM 68.0 °F 64.4 °F 88% 30.06 in 3.7 mi East 5.8 mph - N/A   Unknown
9:00 PM 67 °F 65 °F 89% 30.09 in 4 mi ENE 4.6 mph - -   Haze
9:00 PM 68.0 °F 64.4 °F 88% 30.06 in 3.7 mi ENE 4.6 mph - N/A   Unknown
9:30 PM 68.0 °F 64.4 °F 88% 30.09 in 3.7 mi ENE 4.6 mph - N/A   Unknown
10:00 PM 66.2 °F 64.4 °F 94% 30.06 in 3.1 mi East 4.6 mph - N/A   Mist
10:30 PM 66.2 °F 64.4 °F 94% 30.06 in 3.1 mi ESE 5.8 mph - N/A   Mist
11:00 PM 66.2 °F 64.4 °F 94% 30.06 in 3.7 mi SE 3.5 mph - N/A   Unknown
11:30 PM 66.2 °F 64.4 °F 94% 30.06 in 3.7 mi SE 5.8 mph - N/A   Unknown